TimePST,TemperatureF,Dew PointF,Humidity,Sea Level PressureIn,VisibilityMPH,Wind Direction,Wind SpeedMPH,Gust SpeedMPH,PrecipitationIn,Events,Conditions,WindDirDegrees,DateUTC
12:53 AM,48.9,39.9,71,30.15,10.0,NW,20.7,25.3,N/A,,Overcast,310,2013-12-22 08:53:00
1:53 AM,48.9,41.0,74,30.17,10.0,WSW,10.4,-,N/A,,Overcast,240,2013-12-22 09:53:00
2:53 AM,48.9,41.0,74,30.19,10.0,West,12.7,-,N/A,,Clear,280,2013-12-22 10:53:00
3:53 AM,50.0,41.0,71,30.19,10.0,WNW,17.3,24.2,N/A,,Mostly Cloudy,290,2013-12-22 11:53:00
4:53 AM,48.9,41.0,74,30.19,10.0,WNW,13.8,-,N/A,,Overcast,290,2013-12-22 12:53:00
5:53 AM,48.9,41.0,74,30.19,10.0,WNW,15.0,-,N/A,,Overcast,300,2013-12-22 13:53:00
6:53 AM,48.9,42.1,77,30.21,10.0,NW,12.7,-,N/A,,Overcast,320,2013-12-22 14:53:00
7:53 AM,50.0,42.1,74,30.21,10.0,NW,13.8,-,N/A,,Clear,320,2013-12-22 15:53:00
8:53 AM,50.0,42.1,74,30.22,10.0,NW,16.1,-,N/A,,Clear,320,2013-12-22 16:53:00
9:53 AM,52.0,43.0,71,30.25,10.0,NNW,9.2,-,N/A,,Clear,330,2013-12-22 17:53:00
10:53 AM,53.1,44.1,71,30.25,10.0,NW,13.8,-,N/A,,Clear,320,2013-12-22 18:53:00
11:53 AM,52.0,44.1,74,30.26,10.0,NW,17.3,-,N/A,,Clear,310,2013-12-22 19:53:00
12:53 PM,54.0,44.1,69,30.25,10.0,NW,26.5,33.4,N/A,,Clear,320,2013-12-22 20:53:00
1:53 PM,54.0,44.1,69,30.26,10.0,NW,23.0,28.8,N/A,,Clear,310,2013-12-22 21:53:00
2:53 PM,54.0,44.1,69,30.27,10.0,NW,18.4,27.6,N/A,,Clear,310,2013-12-22 22:53:00
3:53 PM,54.0,44.1,69,30.27,10.0,WNW,15.0,20.7,N/A,,Clear,300,2013-12-22 23:53:00
4:53 PM,53.1,44.1,71,30.28,10.0,SSW,5.8,-,N/A,,Clear,200,2013-12-23 00:53:00
5:53 PM,53.1,44.1,71,30.30,10.0,West,11.5,-,N/A,,Partly Cloudy,280,2013-12-23 01:53:00
6:53 PM,52.0,44.1,74,30.31,10.0,SW,8.1,-,N/A,,Partly Cloudy,230,2013-12-23 02:53:00
7:53 PM,52.0,44.1,74,30.30,10.0,SW,6.9,-,N/A,,Clear,230,2013-12-23 03:53:00
8:53 PM,50.0,44.1,80,30.31,10.0,NW,8.1,-,N/A,,Clear,310,2013-12-23 04:53:00
9:53 PM,48.0,42.1,80,30.31,10.0,Calm,Calm,-,N/A,,Clear,0,2013-12-23 05:53:00
10:53 PM,51.1,44.1,77,30.31,10.0,WSW,8.1,-,N/A,,Clear,250,2013-12-23 06:53:00
11:53 PM,48.0,42.1,80,30.30,10.0,WSW,5.8,-,N/A,,Mostly Cloudy,240,2013-12-23 07:53:00